Regional Weather Roundup
Issued by NWS Midland/Odessa, TX

Skip options and go directly to product.
Home | Oldest Version | Previous Version | Current Version | All | Text Only | Save Text | Print | Product List | Glossary On

Skip product version selection by date and time.   
659
ASUS44 KMAF 250110
RWRMAF
MIDLAND AREA WEATHER ROUNDUP
NATIONAL WEATHER SERVICE MIDLAND TX
800 PM CDT THU APR 24 2014

...IN SOUTHWEST TEXAS AND SOUTHEAST NEW MEXICO...

CITY           SKY/WX    TMP DP  RH WIND       PRES   REMARKS
ALPINE         CLEAR     75  16  10 E8        30.08R
ANDREWS        FAIR      74  27  17 E3        29.97S
ARTESIA        PTCLDY    75  23  14 E7        29.94S
BIG SPRING     CLEAR     79  26  14 NW3       29.97S
CARLSBAD       PTCLDY    78  21  12 E7        29.92F
DRYDEN           N/A     87  20   8 NE10      29.89R
FORT STOCKTON  CLEAR     78  20  11 E6        29.96R
GUAD PASS      CLEAR     73   9   8 SW12      30.06S
HOBBS          PTCLDY    72  19  14 NE5       29.98S
MARFA          CLEAR     77  18  10 CALM      30.06S
MIDLAND AIRPK  CLEAR     78  24  13 N5        29.96S
MIDLAND INTL   CLEAR     77  27  15 NE5       29.96S
ODESSA         CLEAR     78  23  13 MISG      29.96F
PECOS          CLEAR     79  30  16 E7        29.92S
PRESIDIO       FAIR      88  17   7 E3        29.89S
SEMINOLE       CLEAR     73  26  17 CALM      29.98S
SNYDER         CLEAR     77  20  12 NW6       29.96R
WINK           CLEAR     80  22  11 E7        29.93S
$$
...OTHER STATIONS IN TEXAS...

CITY           SKY/WX    TMP DP  RH WIND       PRES   REMARKS
ABILENE        CLEAR     77  30  17 N7        29.93R
AMARILLO       CLOUDY    69  13  11 CALM      29.95F
AUSTIN         PTCLDY    79  65  62 E6        29.83R
BROWNSVILLE    PTCLDY    75  72  88 SE13      29.81R
CORPUS CHRISTI PTCLDY    77  69  76 SE13      29.83R
DALLAS FTW     PTCLDY    76  46  34 N10       29.86R
DEL RIO        CLOUDY    91  18   7 N10G18    29.81R
EL PASO        PTCLDY    79  13   8 SW6       29.95F
HOUSTON INT    PTCLDY    78  66  66 S6        29.83S
LUBBOCK        CLOUDY    71  25  17 E3        29.97S
SAN ANGELO     CLEAR     81  27  14 N6        29.91R
SAN ANTONIO    CLEAR     82  64  54 SE9       29.84R
WACO           CLEAR     75  46  35 N6        29.86R
WICHITA FALLS  NOT AVBL
$$
...OTHER LOCATIONS IN NEW MEXICO...

CITY           SKY/WX    TMP DP  RH WIND       PRES   REMARKS
ALAMAGORDO     PTCLDY    75   9   7 S6        29.98S
ALBUQUERQUE    PTCLDY    69   6   8 VRB3      30.00S
CANNON AFB     NOT AVBL
CLOVIS         CLOUDY    68  27  21 S10       30.00S
HOLLOMAN AFB   PTCLDY    76   5   6 S8        29.96S
ROSWELL        PTCLDY    75  21  13 SE13      29.94F
RUIDOSO        MOCLDY    64   1   8 SW13      30.11S
SANTA FE       CLEAR     64 -22   3 NW18G24   30.03S
TRUTH OR CONSE CLEAR     76   8   7 S21G28    29.94F
TUCUMCARI      CLOUDY    71  24  17 S16       29.90S
$$

USA.gov is the U.S. government's official web portal to all federal, state and local government web resources and services.